Location: Clinton NY
(43.0598°N, 75.3602°W)
Time: 21:17:51
(UTC-04:00)

Iridium 11 - Visible Passes

Search period start: 30 July 2014 00:00
Search period end: 09 August 2014 00:00
Orbit: 776 x 779 km, 86.4° (Epoch: 30 July)

Date Brightness Start Highest point End Pass type
(mag) Time Alt. Az. Time Alt. Az. Time Alt. Az.
30 Jul 7.6 01:45:40 15° E 01:47:17 17° ENE 01:50:35 10° NE visible
30 Jul 5.6 03:26:09 44° SW 03:27:29 58° W 03:32:38 10° N visible
31 Jul 5.5 02:52:55 58° SSE 02:53:56 79° E 02:59:09 10° N visible
31 Jul 7.5 04:33:24 11° W 04:35:18 13° WNW 04:37:38 10° NW visible
01 Aug 6.3 02:19:40 40° ESE 02:20:30 43° E 02:25:25 10° NNE visible
01 Aug 6.8 04:00:09 21° W 04:01:24 23° WNW 04:05:31 10° NNW visible
02 Aug 7.1 01:46:25 23° E 01:47:12 24° E 01:51:19 10° NNE visible
02 Aug 6.1 03:26:54 38° WSW 03:27:39 40° W 03:32:34 10° NNW visible
03 Aug 7.8 01:13:09 13° E 01:14:01 14° ENE 01:16:29 10° NE visible
03 Aug 5.4 02:53:38 70° WSW 02:54:01 74° W 02:59:15 10° N visible
04 Aug 5.7 02:20:22 62° E 02:20:31 62° E 02:25:40 10° N visible
04 Aug 7.3 04:00:51 16° W 04:01:42 16° WNW 04:04:56 10° NW visible
05 Aug 6.6 01:47:05 34° E 01:47:08 34° E 01:51:48 10° NNE visible
05 Aug 6.6 03:27:34 28° W 03:27:52 29° WNW 03:32:22 10° NNW visible
06 Aug 7.4 01:13:48 19° E 01:13:53 19° E 01:17:30 10° NE visible
06 Aug 5.8 02:54:17 51° WNW 02:54:17 51° WNW 02:59:15 10° N visible
07 Aug 8.0 00:40:30 10° ENE 00:40:45 10° ENE 00:41:35 10° ENE visible
07 Aug 5.6 02:20:59 77° N 02:20:59 77° N 02:25:49 10° N visible
07 Aug 7.6 04:01:28 11° WNW 04:02:04 11° WNW 04:03:39 10° NW visible
08 Aug 6.2 01:47:41 47° ENE 01:47:41 47° ENE 01:52:08 10° NNE visible
08 Aug 7.1 03:28:09 20° WNW 03:28:09 20° WNW 03:31:58 10° NNW visible
